753  
ASUS41 KAKQ 211315  
RWRAKQ  
 
REGIONAL WEATHER ROUNDUP  
NATIONAL WEATHER SERVICE WAKEFIELD VA  
900 AM EDT SAT APR 21 2018  
 
NOTE: "FAIR" INDICATES FEW OR NO CLOUDS BELOW 12,000 FEET WITH NO  
SIGNIFICANT WEATHER AND/OR S TO VISIBILITY
. * = DENOTES  
STATION MAY NOT REPORT PRECIPITATION (E.G., RAIN,SNOW,ETC.),
 
THUNDER OR FOG.  
 
VAZ042-051-052>054-056-211400-  
NORTHERN VIRGINIA  
 
CITY SKY/WX TMP DP RH WIND PRES REMARKS
 
WASH NATIONAL PTSUNNY 48 25 40 CALM 30.50S  
DULLES PTSUNNY 45 28 51 CALM 30.50R  
FORT BELVOIR FAIR 48 26 42 CALM 30.50R  
QUANTICO FAIR 47 30 51 CALM 30.52S  
FREDERICKSBRG* FAIR 47 30 53 SE5 30.50S  
STAFFORD* FAIR 46 30 52 CALM 30.54S  
WARRENTON FAIR 46 26 45 CALM 30.50R  
CULPEPER* FAIR 46 27 48 CALM 30.52R  
MANASSAS* FAIR 45 29 53 W3 30.51S  
LEESBURG* FAIR 46 32 57 CALM 30.51R  
WINCHESTER FAIR 43 28 56 E3 30.50R  
FRONT ROYAL* FAIR 41 28 60 CALM 30.48R  
LURAY* FAIR 41 32 70 CALM 30.48R  

 
 
VAZ048-049-060>072-079>083-211400-  
CENTRAL AND SOUTH CENTRAL VIRGINIA  
 
CITY SKY/WX TMP DP RH WIND PRES REMARKS
 
RICHMOND PTSUNNY 48 33 56 NE9 30.48S  
CHESTERFIELD* FAIR 47 30 51 NE6 30.49R  
PETERSBURG* FAIR 47 35 62 NE8 30.49R  
HANOVER FAIR 47 29 49 VRB7 30.50R  
TAPPAHANNOCK* FAIR 48 31 52 E7 30.49F  
QUINTON* FAIR 46 32 58 E10 30.48S  
CHARLOTTSVILLE FAIR 48 30 49 VRB5 30.49S  
GORDONSVILLE* FAIR 46 31 56 NE3 30.49S  
ORANGE* FAIR 45 32 61 CALM 30.50S  
LOUISA* FAIR 46 29 51 NE7 30.53S  
BUMPASS* FAIR 45 27 49 NE3 30.50R  
FARMVILLE* FAIR 46 32 56 NE6 30.48R  
CREWE* FAIR 46 33 61 E6 30.48R  
FORT PICKETT* FAIR 47 34 60 E7 30.47S  
CHASE CITY* FAIR 48 29 48 E3 30.47R  
CLARKSVILLE* FAIR 48 30 49 E3 30.46S  
SOUTH HILL* FAIR 45 35 66 NE3 30.52S  
LAWRENCEVILLE* FAIR 46 36 67 NE5 30.46S  
EMPORIA* FAIR 45 37 76 NE5 30.48S  

 
 
VAZ088>098-211400-  
SOUTHEAST VIRGINIA  
 
CITY SKY/WX TMP DP RH WIND PRES REMARKS
 
NORFOLK FAIR 50 38 63 E9 30.46R  
VIRGINIA BEACH PTSUNNY 50 39 66 NE10 30.46R  
NORFOLK NAVAL FAIR 50 38 63 NE12 30.48R  
WEST POINT* FAIR 48 33 55 NE5 30.50S  
SALUDA* FAIR 47 32 57 NE6 30.49R  
NEWPORT NEWS FAIR 49 35 58 E10 30.48R  
LANGLEY AFB FAIR 49 36 62 NE13 30.48R  
FORT EUSTIS FAIR 49 34 55 E8 30.45R  
WILLIAMSBURG* FAIR 48 37 66 CALM 30.49R  
HR EXEC AP* FAIR 51 41 68 E8 30.47R  
FRANKLIN* FAIR 48 40 75 NE6 30.47R  
US460-WAKEFLD FAIR 50 42 74 VRB6 30.47R  

 
 
VAZ020-022-025-037-045-211400-  
WEST CENTRAL AND SOUTHWEST VIRGINIA  
 
CITY SKY/WX TMP DP RH WIND PRES REMARKS
 
STAUNTON* FAIR 40 30 67 CALM 30.50R  
WAYNESBORO* FAIR 42 27 53 SE3 30.47R  
HOT SPRINGS VA FAIR 41 16 36 SE5 30.41S  
LYNCHBURG FAIR 47 26 44 NE9 30.47R  
DANVILLE FAIR 50 27 40 NE9 30.47R  
SOUTH BOSTON* FAIR 50 28 42 N6 30.47S  
MARTINSVILLE FAIR 49 28 44 NE6 30.49S  
ROANOKE FAIR 46 27 47 CALM 30.49R  
BLACKSBURG FAIR 44 31 60 CALM 30.48S  
DUBLIN* FAIR 44 28 54 CALM 30.46S  
MARION* FAIR 45 24 44 E8 30.46S  
HILLSVILLE* FAIR 44 24 45 SE3 30.42S  
RICHLANDS* FAIR 50 -4 11 SE12G17 30.39S  
WISE* FAIR 50 25 37 S5 30.39R  
ABINGDON* FAIR 51 22 32 E12 30.40S  

 
 
MDZ021>025-VAZ099-100-211400-  
SOUTHERN MARYLAND AND THE DELMARVA PENINSULA  
 
CITY SKY/WX TMP DP RH WIND PRES REMARKS
 
PATUXENT RIVER FAIR 50 28 42 VRB6 30.49R  
BAY BRIDGE APT FAIR 46 32 57 NW7 30.49R  
LEONARDTOWN FAIR 46 28 49 E5 30.50S  
DOVER PTSUNNY 46 28 49 NW10 30.47R  
GEORGETOWN FAIR 46 28 49 N8 30.46S  
EASTON SUNNY 46 30 53 NW6 30.51R  
CAMBRIDGE SUNNY 46 28 49 NW7 30.49R  
SALISBURY FAIR 45 31 58 VRB3 30.47R  
TANGIER FAIR 46 30 53 NE6 30.48R  
OCEAN CITY FAIR 46 32 58 NW5 30.46S  
WALLOPS ISLAND FAIR 48 32 53 N5 30.48R  
ACCOMACK* FAIR 46 31 55 NE5 30.48R  

 
 
NCZ012>017-030>032-211400-  
NORTH CENTRAL AND EASTERN NORTH CAROLINA  
 
CITY SKY/WX TMP DP RH WIND PRES REMARKS
 
ROANOKE RAPIDS FAIR 48 43 81 CALM 30.46S  
RALEIGH FAIR 51 39 63 NE5 30.45S  
ELIZABETH CITY FAIR 50 44 80 N6 30.46R  
AHOSKIE* FAIR 47 42 80 CALM 30.46R  
EDENTON* FAIR 53 47 78 NE5 30.46R  
CURRITUCK* NOT AVBL  
KILL DEVIL HLS FAIR 51 43 75 NE6 30.43S  
MANTEO FAIR 53 38 58 E10 30.45R  
CAPE HATTERAS FAIR 56 36 47 NE9 30.43R  
TARBORO* NOT AVBL  
GOLDSBORO FAIR 53 44 73 E5 30.43R  
WASHINGTON FAIR 53 40 61 CALM 30.45R  
GREENVILLE FAIR 52 39 62 CALM 30.45R  
NEW BERN FAIR 55 43 63 E5 30.45R  
WILMINGTON FAIR 56 48 74 NE7 30.42R  

 
 
VAZ048-211400-  
ELSEWHERE  
 
CITY SKY/WX TMP DP RH WIND PRES REMARKS
 
HARRISBURG PA PTSUNNY 43 29 57 NW6 30.48R  
BALTIMORE PTSUNNY 46 29 51 VRB5 30.49R  
ANNAPOLIS FAIR 49 32 52 NW6 30.49R  
ANDREWS AFB FAIR 46 25 44 N3 30.48R  
PHILADELPHIA PTSUNNY 46 26 45 NW9 30.46S  
HENDERSON NC FAIR 45 36 72 CALM 30.46S  
GREENSBORO FAIR 51 32 48 E7 30.44R  
ROCKY MOUNT FAIR 50 44 80 CALM 30.46R  

 
 
VAZ100-211400-  
MARINE  
 
STATION/POSITION TIME TEMP WIND PRES WAVE SWELL
 
AIR SEA DIR/SP/G HT/PER HT/PER  
(UTC) (F) (DEG/KT/KT) (MB) (FT/S) (FT/S)  
BRANDYWINE LGT 1242 44 350/ 12/ 13 1031.6S  
CAPE MAY NJ 1248 46 48 340/ 9/ 12 1030.8S  
LEWES DE 1248 45 48 10/ 11/ 13 1031.2F  
15NM E FENWICK I 1250 43 46 350/ 12/ 14 1031.3S 3/ 5 2/ 7  
OCEAN-CITY-INLET 1248 44 49 10/ 4/ 6 1031.8S  
WACHAPREAGUE VA 1248 45 53 20/ 7/ 12 1032.0R  
THOMAS POINT MD 1300 45 50 360/ 6/ 7 1033.5R  
GOOSES REEF MD 1300 46 50/ 2/ 4 1033.1  
COVE POINT MD 1248 45 50/ 5/ 5 1033.2R  
SOLOMONS ISLAND 1248 46 51 70/ 7/ 8 1032.3R  
BISHOPS HEAD MD 1248 47 51 40/ 5/ 7 1032.7R  
PINEY POINT MD 1242 120/ 7/ 8 N/A  
POTOMAC MD 1300 46 51 70/ 6/ 8 1033.8 0  
CAMBRIDGE MD 1248 47 53 1033.0R  
LEWISETTA VA 1248 46 52 80/ 7/ 10 1032.6R  
RAPPAHANNOCK LGT 1248 30/ 12/ 15 1032.7R  
YORK RVR RNG VA 1248 46 70/ 12/ 14 1032.7R  
YORKTOWN VA 1248 47 55 70/ 10/ 13 1031.9R  
DOMINION TERM VA 1248 50 30/ 2/ 8 1032.0R  
KIPTOPEKE VA 1248 53 70/ 10/ 13 N/A  
CAPE HENRY VA 1248 47 50/ 11/ 14 N/A  
WILLOUBY STN VA 1248 47 40/ 11/ 13 1031.8R  
S CRANEY ISL VA 1248 49 60/ 11/ 13 1031.5R  
CAPE HENRY BUOY 1300 50 N/A 2/ 4  
64NM E OF VA BCH 1250 47 48 10/ 10/ 12 1031.4R 3/ 6 2/ 6  
DUCK PIER NC 1248 49 51 30/ 12/ 13 1030.5R  
44100 DUCK FRF 1245 50 N/A 2/ 6  
44056 DUCK FRF 1300 51 N/A 2/ 5  
OREGON INLET NC 1242 51 54 20/ 8/ 11 1030.7R  
HATTERAS NC 1248 54 60 30/ 11/ 15 1030.2R  
DIAMOND SHLS NC 1250 54 360/ 17/ 21 1030.2R 3/ 7 3/ 7  
CAPE LOOKOUT NC 1300 50/ 14/ 15 1030.4R  

 
 
 
CLICK HERE TO GO TO PREVIOUS BULLETINS.

The Nexlab VA Page
The Nexlab NC Page
The Nexlab MD Page Main Text Page